Погода в Кузьмичах

Россия / Волгоградская область     48°53′55″N   44°21′25″E
темп.,
°C
ветер,
м/с
пор.,
м/с
влажн.,
%
обл.,
%
осадки,
мм/ч
давл.,
гПа
погр.,
м
22 апреля, чт
чт2200:00+10юз347721 0.0 102065
03:00+8юз347941 0.0 102149
06:00+8зюз2381100 0.0 102272
09:00+14з336116 0.0 1023530
12:00+17зюз334416 0.0 10231789
15:00+17зюз334076 0.0 10222106
18:00+16з3454100 0.0 1022167
21:00+12сз226496 0.0 102312
23 апреля, пт
пт2300:00+11св226693 0.0 102212
03:00+11св2265100 0.0 102222
06:00+11св0168100 0.0 102115
09:00+12зсз2269100 0.0 1022314
12:00+15с215797 0.3 1020780
15:00+13зюз456995 1.0 1020359
18:00+13з237098 0.3 1019136
21:00+10с12874 0.3 101816
24 апреля, сб
сб2400:00+9зюз22895 0.0 101716
03:00+8зюз358942 0.0 101681
06:00+9юз4884100 0.0 1016220
09:00+13зюз7105838 0.0 10161031
12:00+17юз9114480 0.0 10142299
15:00+15зюз9115660 0.3 10141611
18:00+12з6969100 0.6 10151025
21:00+9зюз367254 0.6 1017144
25 апреля, вс
вс2500:00+8юз48793 0.0 1017171
03:00+6юз47817 0.0 1017156
06:00+6зюз41074100 0.0 1018432
09:00+9з685324 0.0 10191338
12:00+11з6740100 0.0 10201739
15:00+12з5638100 0.0 10191937
18:00+11зсз3546100 0.0 1020230
21:00+9зсз2251100 0.0 102130
26 апреля, пн
пн2600:00+8св2255100 0.0 102029
03:00+7в2360100 0.0 102032
06:00+7в3565100 0.0 1020122
09:00+11вюв5547100 0.0 10191035
12:00+12в4442100 0.0 10181646
15:00+11юв4346100 0.0 10171509
18:00+9ю3364100 0.0 1016719
21:00+8юз4477100 0.0 1016407